Location: Pine Mountain State Resort Park
(36.7364°N, 83.7376°W)
Time: 03:20:15
(UTC-05:00)

Hubble Space Telescope - Visible Passes

Search period start: 24 February 2018 00:00
Search period end: 06 March 2018 00:00
Orbit: 537 x 541 km, 28.5° (Epoch: 23 February)

Date Brightness Start Highest point End Pass type
(mag) Time Alt. Az. Time Alt. Az. Time Alt. Az.
24 Feb 2.7 05:03:15 22° SSE 05:03:15 22° SSE 05:05:28 10° ESE visible
24 Feb 2.5 06:39:31 10° WSW 06:42:48 23° S 06:46:04 10° SE visible
25 Feb 3.0 04:53:32 19° SE 04:53:32 19° SE 04:55:10 10° ESE visible
25 Feb 2.6 06:29:18 10° WSW 06:32:26 21° S 06:35:34 10° SE visible
26 Feb 3.3 04:43:51 15° SE 04:43:51 15° SE 04:44:50 10° ESE visible
26 Feb 2.7 06:19:12 10° WSW 06:22:04 19° SSW 06:25:00 10° SSE visible
27 Feb 3.7 04:34:10 11° SE 04:34:10 11° SE 04:34:28 10° SE visible
27 Feb 2.8 06:09:32 12° SW 06:11:41 17° SSW 06:14:21 10° SSE visible
28 Feb 2.8 05:59:54 12° SW 06:01:19 14° SSW 06:03:33 10° SSE visible
01 Mar 3.0 05:50:18 12° SSW 05:50:55 12° SSW 05:52:31 10° S visible
